Home   Weather   Nagano   Past weeks

Flag for Japan Past Weather in Nagano, Japan — Yesterday and Last 2 Weeks

Now
31 °F

Chilly.


Feels Like: 31 °F
Forecast: 21 / 45 °F
Wind: 2 mph from North

Location: Nagano

Current Time: Dec 11, 2016 at 9:10:20 pm

Latest Report: Dec 11, 2016 at 8:00 pm


Visibility: N/A

Pressure: 30.33 "Hg

Humidity: 95%

Dew Point: 30 °F

Location of NaganoLocation

Past Weather in Nagano — Graph

°F

Nagano Temperature Yesterday

Maximum temperature yesterday: 40 °F (at 11:00 am)
Minimum temperature yesterday: 30 °F (at 11:00 pm)
Average temperature yesterday: 35 °F

High & Low Weather Summary for the Past Weeks

 TemperatureHumidityPressure
High59 °F (Dec 5, 1:00 pm)100% (Nov 27, 8:00 pm)30.55 "Hg (Nov 27, 8:00 pm)
Low29 °F (Dec 11, 4:00 am)42% (Dec 7, 3:00 pm)29.75 "Hg (Dec 9, 2:00 pm)
Average41 °F79%30.14 "Hg
* Reported Nov 26 7:00 pm — Dec 11 7:00 pm, Nagano, Weather by CustomWeather, © 2016

Note: Actual official high and low records may vary slightly from our data, if they occured in-between our weather recording intervals... More about our weather records

Advertising

Nagano Weather History for the Previous 24 Hours

Scroll right to see more
 ConditionsComfort  
Time TempWeatherWind HumidityBarometerVisibility
7:00 pm
Sun, Dec 11
32 °FChilly.3 mph95%30.32 "HgN/A
6:00 pm32 °FChilly.5 mph95%30.30 "HgN/A
5:00 pm32 °FChilly.5 mph95%30.29 "HgN/A
4:00 pm33 °FChilly.9 mph92%30.27 "HgN/A
3:00 pm34 °FOvercast.9 mph89%30.25 "Hg19 mi
2:00 pm33 °FChilly.6 mph93%30.23 "HgN/A
1:00 pm33 °FChilly.2 mph91%30.22 "HgN/A
12:00 pm32 °FChilly.5 mph96%30.23 "HgN/A
11:00 am32 °FChilly.6 mph96%30.25 "HgN/A
10:00 am31 °FChilly.3 mph97%30.25 "HgN/A
9:00 am31 °FSnow flurries. Overcast.1 mph96%30.24 "Hg1 mi
8:00 am31 °FChilly.2 mph95%30.23 "HgN/A
7:00 am30 °FChilly.1 mph97%30.22 "HgN/A
6:00 am30 °FChilly.1 mph96%30.22 "HgN/A
5:00 am30 °FChilly.2 mph89%30.19 "HgN/A
4:00 am29 °FChilly.5 mph91%30.18 "HgN/A
3:00 am29 °FOvercast.2 mph88%30.19 "Hg9 mi
2:00 am30 °FChilly.3 mph89%30.18 "HgN/A
1:00 am31 °FChilly.3 mph86%30.18 "HgN/A
12:00 am30 °FChilly.3 mph88%30.18 "HgN/A
11:00 pm
Sat, Dec 10
30 °FChilly.1 mph89%30.19 "HgN/A
9:00 pm31 °FPassing clouds.5 mph87%30.21 "Hg9 mi
Weather by CustomWeather, © 2016

See weather overviewHow to use our weather pages